Regional Weather Roundup
Issued by NWS

Home | Current Version | Previous Version | Text Only | Print | Product List | Glossary On
Versions: 1 2 3 4 5 6 7 8 9 10 11 12 13 14 15 16 17 18 19 20 21 22 23 24 25 26 27 28 29 30 31 32 33 34 35 36 37 38 39 40 41 42 43 44 45 46 47 48 49 50
000
ASUS45 KBOU 231807
RWRCO

WEATHER ROUNDUP FOR COLORADO
NATIONAL WEATHER SERVICE DENVER/BOULDER CO
1200 PM MDT SAT MAY 23 2015

NOTE: "FAIR" INDICATES FEW OR NO CLOUDS BELOW 12000 FEET WITH NO
SIGNIFICANT WEATHER AND/OR OBSTRUCTIONS TO VISIBILITY.

COZ001>005-013-030-031-231900-
...NORTHWEST COLORADO...

CITY           SKY/WX    TMP DP  RH WIND       PRES   REMARKS
CRAIG          LGT RAIN  56  38  50 W15       29.97S
HAYDEN         CLOUDY    46  36  66 NW10      29.95S THUNDER
MEEKER         PTSUNNY   56  36  47 MISG      29.96R
MOUNT WERNER   NOT AVBL
STEAMBOAT SPGS PTSUNNY   55  39  53 W7        29.94F
WALDEN         PTSUNNY   50  34  53 CALM      30.00F
$$

COZ006>008-011-231900-
...WEST CENTRAL VALLEYS...

CITY           SKY/WX    TMP DP  RH WIND       PRES   REMARKS
GRAND JUNCTION MOSUNNY   63  26  24 S9G17     29.93F
MONTROSE       PTSUNNY   57  28  33 N7        29.98F
EAGLE          MOSUNNY   59  39  47 SW6       29.95F
RIFLE          CLOUDY    55  34  45 SW13      29.97R
DELTA          PTSUNNY   63  30  29 MISG      29.96S
NUCLA          PTSUNNY   57  28  33 W12G22    30.03F THUNDER
$$

COZ017>023-064>068-231900-
...SOUTHWEST COLORADO...

CITY           SKY/WX    TMP DP  RH WIND       PRES   REMARKS
DURANGO        PTSUNNY   55  25  31 S18       30.04F
CORTEZ         MOSUNNY   57  32  38 SW14G22   30.03S
PAGOSA SPRINGS MOSUNNY   52  20  28 S10G18    30.07F THUNDER
TELLURIDE      TSTM      37  31  77 SE6G21    30.10S
WOLF CREEK PAS NOT AVBL
$$

COZ009-010-012-014-032>034-037-058>063-231900-
...CENTRAL COLORADO...

CITY           SKY/WX    TMP DP  RH WIND       PRES   REMARKS
ASPEN          PTSUNNY   46  27  47 SE22G36   30.02R
BUENA VISTA    PTSUNNY   45  35  68 CALM      30.04F
COPPER MTN     CLOUDY    37  28  70 E5        30.15F
BERTHOUD PASS  TSTM      25  18  74 SE7       30.20F VSB<1/4 WCI  17
COTTONWOOD PAS CLOUDY    45  36  70 E3        30.09F
GUNNISON       MOSUNNY   52  32  46 CALM      30.02F
KREMMLING      PTSUNNY   54  37  54 CALM      29.99F
LEADVILLE      MOSUNNY   40  31  70 S8        30.06F
SALIDA         CLOUDY    44  38  79 CALM      30.12R
SUNLIGHT       PTSUNNY   39  32  75 CALM      30.14F THUNDER
WILKERSON PASS CLOUDY    34  30  86 SW5       30.17F WCI  30
$$

COZ069>075-231900-
...SAN LUIS VALLEY/SANGRE DE CRISTO MOUNTAINS...

CITY           SKY/WX    TMP DP  RH WIND       PRES   REMARKS
ALAMOSA        CLOUDY    51  28  41 SE14G25   30.03R
LA VETA PASS   PTSUNNY  N/A N/A N/A MISG      30.11F
SAGUACHE       PTSUNNY   50  30  46 W10G25    30.04F
$$

COZ035-036-038>040-231900-
...NORTHERN COLORADO FRONT RANGE...

CITY           SKY/WX    TMP DP  RH WIND       PRES   REMARKS
DENVER INTL AP CLOUDY    59  48  67 SE6G17    29.97F
DMNS CITY PARK   N/A     60  47  62 N5        29.96F
AURORA         PTSUNNY   60  47  62 E6        29.97F
FRONT RANGE AP PTSUNNY   63  52  67 E9G17     29.97F
ERIE MUNI ARPT CLOUDY    57  49  75 CALM      29.97F
BOULDER MUN AP PTSUNNY   54  50  87 CALM      29.98F THUNDER
CENTENNIAL     PTSUNNY   59  47  64 E7        29.97F
BROOMFIELD     CLOUDY    55  48  76 E3        29.99F HAZE
FORT COLLINS   CLOUDY    57  48  72 S5        30.00F
LONGMONT       CLOUDY    58  49  73 CALM      29.99F
$$

COZ041-046-047-076>085-087-088-231900-
...PIKES PEAK/PALMER DIVIDE AND SOUTHERN FOOTHILLS...

CITY           SKY/WX    TMP DP  RH WIND       PRES   REMARKS
COLO. SPRINGS  HAIL      53  49  86 E8        30.00F
A. F. ACADEMY  TSTM      48  37  66 SW15      30.02R
ELLICOTT       NOT AVBL
FALCON         DRZL/FOG  48  48  99 SE10      30.04F VSB<1/4
FORT CARSON    RAIN      55  50  82 SE10      29.99S
LIMON          CLOUDY    58  47  66 S14       29.99F
MONUMENT HILL  NOT AVBL
TRINIDAD       MOSUNNY   65  51  60 NE8       29.93F
$$

COZ042>045-048>051-090-091-231900-
...NORTHEAST COLORADO...

CITY           SKY/WX    TMP DP  RH WIND       PRES   REMARKS
GREELEY ARPT   CLOUDY    57  48  72 CALM      29.98F
AKRON          CLOUDY    60  53  77 SW5       29.97F
BURLINGTON     PTSUNNY   62  53  72 SE16G24   29.99F
WRAY           CLOUDY    63  57  81 S9        30.00F
STERLING       PTSUNNY   61  55  82 E3        29.96F
HOLYOKE        NOT AVBL
FORT MORGAN    CLOUDY    57  51  79 SE3       29.99S
$$

COZ086-089-092>099-231900-
...SOUTHEAST COLORADO...

CITY           SKY/WX    TMP DP  RH WIND       PRES   REMARKS
PUEBLO         CLOUDY    57  51  80 E5        29.95F
LA JUNTA       MOSUNNY   67  53  61 SE14G21   29.93F
LAMAR          CLOUDY    65  53  65 SE16G22   29.94F
SPRINGFIELD      N/A     60  52  74 S12       29.97F
$$


USA.gov is the U.S. government's official web portal to all federal, state and local government web resources and services.